Lid_Strength_Index
10 11 12 10 7 7 5 5 5 5 4 4 5 3 2 1 0 0 0 -0 -1 -1 -0 -0 -1 -1 -1 -1 -1 -1 -1 -1
10 12 10 9 6 6 6 5 5 5 5 3 2 2 1 0 0 0 0 -0 -1 -1 -0 -0 -1 -1 -1 -1 -1 -1 -1 -1
10 10 9 8 6 5 6 5 5 5 6 4 2 1 1 1 0 1 0 0 -0 -1 -0 -1 -1 -1 -1 -1 -1 -1 -1 -1
10 8 8 6 6 5 6 6 5 5 5 4 2 2 1 0 0 0 0 -0 -0 -1 -1 -0 -0 -1 -1 -0 -1 -1 -1 -1
8 8 7 6 5 7 6 7 5 4 5 3 3 2 1 0 0 0 0 0 -0 -0 -1 -1 -1 -0 -1 -1 -1 -1 -1 -1
8 8 8 5 5 5 5 5 3 3 6 5 2 1 1 0 1 0 0 0 0 -0 -0 -0 -0 -1 -1 -1 -1 -1 -1 -1
8 8 7 5 5 4 3 5 4 3 4 3 1 2 2 1 1 1 1 1 0 0 -0 -0 -0 -1 -1 -1 -1 -1 -1 -1
6 5 6 5 5 5 5 5 5 4 3 2 3 3 2 2 2 2 1 1 0 0 0 -0 -0 -0 -1 -1 -1 -1 -1 -1
5 4 4 5 5 4 5 6 5 5 4 3 3 3 3 3 2 2 1 1 0 0 -0 -0 -0 -0 -0 -0 -0 -1 -1 -1
5 4 5 5 4 5 5 5 3 3 3 3 3 3 4 4 3 1 1 1 0 0 0 0 -0 0 -0 -0 -0 -0 -0 -1
4 4 4 4 5 5 5 3 3 3 3 3 3 3 1 2 3 1 0 1 0 0 0 0 -0 -0 -0 0 -0 -0 -0 -1
5 5 5 5 5 5 4 3 3 3 3 3 3 3 2 3 1 2 1 1 1 0 0 -0 -1 -1 -0 -0 -0 -0 -0 -0
6 6 6 5 7 7 4 3 4 4 3 3 3 2 3 2 2 1 1 1 1 0 0 0 0 -0 -0 -0 -1 -0 -0 -1
7 6 6 6 9 6 4 4 4 4 4 3 3 2 2 2 2 1 -0 -0 -1 0 0 0 0 0 -0 -0 -0 -0 -0 -1
8 5 6 6 9 6 4 4 5 4 4 3 3 2 2 1 2 2 1 0 -0 -1 -0 0 0 0 0 -0 0 -0 -0 -0
9 7 6 7 8 6 5 5 5 4 4 4 3 3 2 2 1 1 1 0 0 1 0 -0 0 1 0 0 0 -0 0 -0
8 7 7 8 7 7 5 5 5 5 4 4 4 2 2 2 1 1 1 1 0 1 1 1 1 2 2 2 1 1 0 -0
8 6 7 7 8 6 6 5 5 5 4 4 4 3 2 2 1 2 1 1 1 1 0 1 1 1 1 1 1 0 0 0
9 7 7 8 9 8 6 5 5 4 4 4 4 3 3 2 2 1 2 2 0 0 1 -0 0 0 1 1 1 1 1 1
8 9 12 8 13 9 7 7 6 5 4 4 4 3 3 3 2 1 1 0 1 0 0 1 0 0 1 2 3 2 1 1